Wind_Speed
9 10 10 11 11 12 12 13 13 12 13 13 14 14 15 15 16 16 16 16 16 17 17 16 16 16 15 15 14 13 13 12 11 11 10 9 8 6 5 4 4 5 5
10 11 12 13 13 13 14 14 15 15 15 16 16 17 18 18 17 17 17 18 18 18 18 18 17 16 16 16 15 14 14 13 12 12 11 10 9 7 6 5 4 4 4
11 12 13 13 14 14 15 16 16 17 17 18 19 19 20 20 20 19 19 20 20 20 19 19 18 17 17 17 16 15 15 14 13 12 11 11 10 9 7 6 5 4 4
12 13 14 15 16 16 17 17 18 18 19 20 21 21 22 23 24 22 22 22 22 22 21 20 20 19 18 17 17 16 16 15 14 13 13 12 11 10 8 7 5 5 4
14 15 16 17 17 17 18 19 19 20 21 22 23 23 23 23 25 25 25 25 24 23 23 22 21 20 19 18 18 18 17 16 15 14 13 13 12 11 9 8 6 5 4
15 16 17 17 17 18 18 19 20 21 22 23 24 24 24 25 25 26 27 26 25 24 24 24 23 22 20 20 19 19 18 17 16 15 14 13 12 12 10 9 8 6 5
15 16 16 16 16 17 17 18 19 20 21 22 23 24 25 26 26 26 26 27 26 26 26 25 25 23 22 20 20 20 19 18 17 16 15 14 13 12 11 10 9 8 6
14 15 15 16 16 16 16 17 18 19 20 21 22 23 24 24 26 26 27 26 27 27 27 26 26 25 24 22 20 20 20 20 18 17 16 14 14 13 12 11 10 8 7
14 14 14 14 14 15 15 16 16 17 18 18 20 21 22 24 25 26 27 29 28 28 29 29 28 27 26 24 22 20 21 20 19 18 17 16 15 14 13 12 11 10 9
13 14 13 13 13 13 14 15 15 16 16 17 18 19 21 22 23 24 27 28 29 29 29 29 28 28 28 26 24 22 21 21 20 19 19 18 16 15 14 13 12 11 10
12 12 12 12 12 12 13 13 15 15 16 17 18 19 20 21 22 23 25 27 28 28 29 29 28 28 27 26 25 24 22 21 22 20 20 19 18 17 15 14 13 12 12
11 11 11 11 11 12 13 14 15 16 17 17 18 19 20 20 21 22 23 24 26 27 28 28 28 28 27 27 26 24 22 21 21 21 21 20 19 19 17 16 15 14 13
10 10 11 11 11 12 14 15 16 17 17 18 18 19 20 21 21 21 22 23 24 25 26 26 27 27 27 28 27 26 23 22 22 21 21 21 20 20 19 17 16 16 15
9 9 10 11 12 13 14 16 17 18 18 19 19 20 20 21 21 20 21 21 22 22 23 23 24 26 26 26 26 26 25 22 22 22 22 21 21 21 20 19 18 17 16
9 9 10 10 11 13 15 17 18 19 19 20 20 20 21 21 21 20 20 20 20 20 21 22 23 24 24 24 25 25 26 25 22 22 22 22 23 22 21 21 20 18 17
8 9 9 10 11 13 15 17 18 19 20 21 21 21 21 21 21 20 19 18 17 17 18 20 21 23 24 24 24 25 26 25 23 22 23 22 23 24 22 22 21 20 18
7 8 9 10 12 14 15 17 19 20 21 21 21 21 21 21 20 19 18 16 15 15 16 17 19 21 22 22 23 24 25 25 24 23 23 23 24 25 23 22 22 21 20
7 8 9 10 12 14 16 17 19 20 21 21 21 21 21 21 20 19 18 15 14 14 14 14 16 18 19 20 22 24 24 24 24 24 24 23 24 25 25 24 23 21 21
7 8 9 10 12 14 15 17 19 20 21 21 21 21 21 20 20 19 17 15 13 12 12 12 13 15 17 18 20 22 23 24 24 24 24 24 24 24 25 24 24 23 22
7 8 9 10 11 13 15 17 19 20 21 21 21 21 21 20 20 18 17 15 13 11 10 9 11 13 14 16 18 20 21 22 24 25 25 24 24 24 25 24 24 24 23
8 8 9 10 12 14 15 17 19 20 21 21 21 20 20 20 20 18 17 15 12 10 8 7 8 10 12 14 16 19 20 20 22 23 24 24 24 25 25 24 23 24 24
8 8 9 10 12 14 15 17 19 20 21 21 20 20 20 20 20 19 17 15 12 10 8 6 6 7 10 12 14 17 19 20 22 22 23 24 24 24 24 24 24 24 24
8 9 9 10 12 14 15 17 18 20 20 20 20 19 19 19 19 18 17 15 12 10 8 6 5 6 7 10 12 15 18 20 22 22 22 24 24 25 25 26 25 25 24
9 9 9 11 12 14 15 17 18 19 19 20 19 19 19 19 18 17 16 15 13 11 9 6 5 4 5 8 10 12 15 18 20 21 22 23 24 25 26 27 26 25 25
9 9 10 11 12 14 15 16 17 18 19 19 19 18 18 18 18 17 16 15 13 11 9 7 5 4 4 6 8 10 13 16 19 19 20 23 24 25 26 27 27 27 26
10 10 10 11 12 14 15 16 17 18 18 18 18 18 18 18 18 17 16 15 14 12 9 8 6 5 4 5 6 9 11 14 17 18 18 20 23 24 25 27 28 28 28
Wind_Direction
300 298 299 297 295 293 290 281 277 276 273 270 268 265 261 258 255 254 252 251 250 251 252 253 253 252 252 252 254 253 253 254 253 252 253 253 258 266 278 296 318 330 344
302 298 297 298 295 292 289 285 282 279 276 274 273 270 263 260 257 254 255 253 251 252 252 253 253 253 254 253 253 253 253 254 251 249 248 248 253 258 265 276 294 313 330
304 301 299 298 296 293 290 285 284 283 278 277 276 275 269 262 258 257 257 253 252 252 253 252 254 255 255 254 252 251 251 251 247 245 243 244 248 250 252 260 273 297 314
302 299 298 297 294 292 289 286 286 284 282 280 279 277 275 268 262 259 259 256 254 254 253 252 252 254 255 252 251 251 250 248 245 243 241 241 243 244 244 248 260 278 292
302 298 298 297 293 290 287 286 285 283 283 282 280 278 276 273 267 264 262 259 257 256 255 252 251 252 253 250 250 250 249 246 243 242 240 239 239 238 235 241 250 260 266
303 301 301 299 297 295 292 289 287 285 285 283 281 278 277 275 273 268 264 262 259 259 257 256 252 251 251 248 249 247 246 244 241 239 237 236 236 234 231 235 241 242 244
306 305 305 305 304 302 299 297 294 291 288 285 283 281 280 277 273 271 268 264 262 261 259 258 252 251 251 249 250 247 243 241 239 236 234 233 233 229 229 231 230 230 230
310 310 311 312 312 310 309 306 303 300 296 292 288 285 282 280 276 273 269 267 264 263 259 257 254 253 251 249 250 248 241 238 236 234 232 230 229 225 225 223 223 223 221
313 315 317 318 319 319 319 316 313 310 306 302 297 292 288 284 282 277 273 270 267 265 261 259 256 252 249 248 249 246 240 238 236 232 230 228 224 222 221 219 219 220 218
316 319 322 324 325 326 326 325 324 322 318 312 307 302 297 292 287 282 278 273 268 265 262 261 257 253 249 248 247 245 239 237 234 231 228 226 222 220 219 216 216 217 214
318 323 327 330 332 333 336 334 332 330 326 322 317 311 305 301 296 289 284 279 273 268 263 260 256 252 248 246 246 245 242 238 233 228 225 224 221 219 218 216 214 213 210
320 327 331 335 337 339 340 339 336 334 331 327 323 319 313 307 302 297 290 284 278 271 265 260 256 253 247 244 243 244 243 237 228 227 225 223 220 219 217 215 213 213 212
324 329 334 337 340 342 342 341 339 337 334 331 327 322 317 312 306 301 295 288 280 273 267 261 255 251 247 244 243 243 242 237 229 227 223 222 219 218 217 214 213 213 212
326 332 336 340 342 343 343 343 341 339 337 334 329 326 322 317 313 307 300 292 284 275 268 261 256 250 247 243 241 240 239 236 228 226 226 224 220 217 216 215 214 213 212
325 333 338 341 342 344 344 344 343 341 339 337 333 330 327 323 319 313 306 298 288 279 270 261 255 249 246 242 238 235 235 235 226 225 225 226 219 216 216 215 214 213 213
324 331 336 339 342 344 344 344 344 343 341 339 337 334 330 327 324 320 313 303 292 282 274 263 256 250 246 241 236 233 232 233 226 228 225 224 219 216 216 215 214 216 214
320 328 335 339 342 344 344 345 345 344 342 340 339 338 335 332 329 325 320 311 299 287 277 265 256 250 245 239 234 231 229 227 225 224 224 221 219 216 215 214 215 217 216
317 326 333 338 342 344 345 346 347 346 345 343 342 341 339 337 335 331 327 320 309 295 283 270 258 250 243 237 231 228 227 225 223 222 222 220 218 216 216 216 215 217 217
310 321 328 334 339 342 345 347 347 348 347 347 345 345 343 342 340 337 334 328 318 304 290 272 260 249 241 234 228 225 224 224 221 220 218 217 217 218 218 219 218 219 220
304 315 323 330 336 340 343 346 346 347 347 347 347 346 346 346 345 343 342 336 328 317 303 280 262 248 239 232 226 223 223 221 220 219 216 215 215 217 218 220 221 221 220
299 309 318 326 332 337 341 344 345 346 348 348 348 348 348 348 348 347 347 344 340 332 319 294 273 250 237 230 227 224 223 221 219 218 217 214 214 216 216 218 221 222 222
293 303 314 322 328 334 339 342 344 346 348 348 349 349 350 350 350 350 350 350 349 345 334 313 286 257 241 235 229 225 221 217 215 216 216 217 218 217 217 218 222 224 223
287 299 309 319 326 332 337 340 343 346 347 348 349 350 351 352 352 353 353 354 353 350 342 328 302 269 242 236 231 225 221 218 216 217 218 218 220 219 219 219 221 222 223
283 294 305 315 323 330 335 339 342 345 347 349 350 351 352 354 355 355 356 356 355 353 349 338 322 293 256 242 231 226 224 221 218 219 221 219 221 222 221 221 223 222 222
279 290 301 311 321 328 333 337 341 344 346 348 350 351 352 354 356 357 358 358 356 355 353 348 338 319 280 254 238 231 226 223 222 222 225 222 223 223 223 223 224 223 224
276 286 297 308 318 326 332 336 340 343 345 347 349 351 352 354 356 358 359 359 358 358 355 350 342 330 300 267 249 237 229 228 227 227 228 226 224 225 225 226 226 227 228
Height
5880 5879 5878 5878 5877 5876 5876 5876 5875 5875 5874 5874 5874 5873 5873 5873 5873 5873 5872 5873 5873 5873 5873 5874 5874 5874 5875 5875 5875 5876 5876 5876 5877 5877 5877 5878 5878 5878 5878 5878 5878 5878 5878
5878 5877 5877 5876 5875 5874 5874 5873 5873 5872 5872 5872 5871 5871 5870 5870 5870 5870 5870 5870 5870 5870 5871 5871 5872 5872 5873 5873 5873 5874 5874 5874 5875 5875 5876 5876 5877 5877 5878 5878 5878 5878 5878
5877 5876 5875 5874 5873 5872 5871 5871 5870 5869 5869 5868 5868 5868 5867 5867 5867 5867 5867 5867 5867 5867 5868 5868 5869 5870 5870 5871 5871 5871 5872 5872 5873 5873 5874 5875 5875 5876 5877 5877 5877 5877 5878
5875 5874 5873 5872 5871 5870 5869 5868 5867 5866 5866 5865 5864 5864 5863 5863 5863 5863 5863 5863 5863 5864 5864 5865 5866 5867 5867 5868 5869 5869 5869 5870 5871 5871 5872 5873 5873 5874 5875 5876 5877 5877 5877
5873 5871 5870 5869 5868 5867 5866 5865 5864 5863 5862 5861 5860 5859 5859 5859 5859 5859 5859 5859 5859 5860 5860 5861 5862 5863 5864 5865 5866 5866 5867 5868 5868 5869 5870 5871 5872 5873 5874 5875 5876 5876 5877
5870 5869 5867 5866 5865 5864 5862 5861 5860 5859 5858 5857 5856 5855 5855 5854 5854 5854 5854 5854 5855 5855 5856 5857 5858 5859 5860 5861 5863 5863 5864 5865 5866 5867 5868 5869 5870 5871 5872 5873 5875 5876 5876
5868 5866 5865 5864 5862 5861 5859 5858 5856 5855 5854 5853 5852 5851 5850 5850 5849 5849 5849 5849 5849 5850 5851 5852 5854 5855 5856 5857 5859 5860 5861 5862 5863 5864 5865 5866 5868 5869 5871 5872 5873 5875 5876
5865 5864 5862 5861 5859 5858 5856 5854 5853 5851 5850 5848 5847 5846 5845 5844 5844 5844 5844 5844 5844 5845 5846 5847 5849 5850 5852 5853 5855 5856 5857 5858 5860 5861 5863 5864 5866 5867 5869 5870 5872 5873 5875
5863 5862 5860 5859 5857 5855 5853 5852 5850 5848 5846 5845 5843 5842 5840 5839 5839 5838 5838 5838 5838 5839 5840 5841 5842 5845 5847 5849 5851 5852 5853 5855 5857 5859 5860 5862 5863 5865 5867 5869 5871 5872 5874
5861 5860 5858 5857 5855 5854 5852 5849 5847 5846 5843 5841 5839 5838 5836 5834 5834 5833 5832 5832 5832 5833 5833 5834 5836 5838 5841 5843 5846 5848 5850 5852 5853 5855 5858 5859 5861 5863 5865 5867 5869 5871 5873
5860 5858 5856 5855 5853 5852 5850 5848 5846 5843 5841 5839 5836 5834 5832 5830 5829 5828 5827 5826 5826 5826 5827 5828 5830 5832 5835 5838 5841 5843 5846 5848 5850 5852 5854 5856 5858 5861 5863 5865 5867 5869 5871
5858 5856 5855 5853 5852 5850 5848 5846 5844 5841 5839 5836 5833 5831 5828 5826 5824 5822 5821 5820 5819 5820 5820 5822 5824 5826 5829 5832 5835 5839 5841 5844 5846 5849 5851 5853 5856 5858 5861 5863 5866 5868 5870
5856 5855 5854 5852 5850 5849 5847 5844 5842 5839 5837 5834 5831 5828 5825 5822 5819 5817 5815 5814 5813 5813 5814 5815 5817 5820 5823 5826 5830 5833 5837 5840 5842 5845 5848 5850 5853 5855 5858 5861 5863 5866 5868
5855 5854 5852 5851 5849 5847 5845 5843 5840 5837 5834 5831 5828 5825 5821 5818 5815 5813 5810 5809 5808 5807 5808 5809 5811 5814 5817 5820 5824 5828 5832 5835 5838 5841 5844 5847 5849 5852 5855 5858 5861 5864 5866
5854 5853 5851 5850 5848 5846 5844 5841 5839 5836 5833 5829 5825 5822 5818 5815 5812 5809 5806 5804 5802 5802 5802 5804 5805 5808 5811 5814 5818 5821 5826 5830 5833 5837 5840 5843 5846 5849 5852 5855 5859 5861 5864
5853 5852 5851 5849 5847 5845 5843 5840 5837 5834 5831 5827 5823 5819 5815 5811 5808 5805 5802 5800 5798 5797 5797 5798 5800 5802 5805 5808 5812 5816 5821 5824 5829 5832 5836 5839 5842 5846 5849 5853 5856 5859 5862
5852 5851 5850 5848 5846 5844 5842 5839 5836 5833 5829 5825 5821 5817 5813 5809 5805 5801 5798 5796 5794 5793 5793 5793 5795 5797 5800 5803 5807 5811 5815 5819 5824 5828 5832 5835 5839 5842 5846 5849 5853 5856 5859
5851 5850 5849 5847 5845 5844 5841 5838 5835 5832 5828 5824 5819 5815 5811 5806 5802 5799 5795 5793 5791 5790 5789 5789 5790 5792 5795 5798 5802 5806 5810 5814 5819 5823 5828 5831 5835 5839 5843 5846 5850 5853 5856
5850 5849 5848 5846 5845 5843 5840 5837 5834 5831 5827 5822 5818 5814 5809 5805 5801 5797 5793 5790 5788 5787 5786 5786 5787 5788 5791 5794 5797 5801 5805 5810 5814 5819 5824 5827 5831 5835 5839 5843 5846 5850 5853
5849 5848 5847 5846 5844 5842 5839 5837 5833 5830 5826 5821 5817 5813 5808 5804 5799 5795 5792 5788 5786 5784 5783 5783 5784 5785 5788 5790 5794 5797 5801 5805 5809 5814 5819 5823 5827 5831 5835 5839 5843 5846 5849
5847 5847 5846 5845 5843 5841 5839 5836 5833 5829 5825 5821 5816 5812 5807 5803 5798 5794 5791 5787 5785 5783 5782 5782 5782 5783 5785 5787 5790 5794 5797 5801 5805 5810 5815 5819 5823 5827 5831 5835 5839 5842 5846
5846 5846 5845 5844 5842 5840 5837 5835 5831 5828 5824 5820 5816 5811 5807 5802 5798 5794 5790 5787 5784 5782 5781 5780 5781 5781 5783 5785 5787 5790 5794 5798 5802 5806 5810 5815 5820 5823 5827 5831 5835 5839 5842
5845 5844 5843 5842 5841 5839 5836 5834 5830 5827 5823 5819 5815 5811 5807 5802 5798 5794 5790 5787 5784 5782 5780 5779 5779 5780 5781 5783 5785 5788 5791 5794 5798 5802 5806 5811 5815 5819 5823 5827 5830 5834 5838
5843 5843 5842 5841 5840 5838 5835 5833 5830 5826 5823 5819 5815 5811 5807 5802 5798 5794 5790 5787 5784 5782 5780 5779 5779 5779 5780 5781 5783 5785 5788 5791 5795 5799 5803 5807 5811 5815 5819 5823 5827 5830 5834
5842 5841 5841 5840 5838 5836 5834 5831 5829 5825 5822 5818 5814 5811 5807 5803 5799 5795 5791 5787 5785 5782 5780 5779 5778 5778 5779 5780 5781 5783 5785 5788 5792 5795 5799 5803 5807 5810 5814 5818 5822 5826 5829
5840 5839 5839 5838 5837 5835 5833 5830 5828 5825 5821 5818 5814 5810 5807 5803 5799 5795 5792 5788 5785 5783 5781 5779 5778 5778 5778 5778 5779 5781 5783 5785 5789 5792 5795 5798 5802 5806 5809 5813 5817 5821 5824